Weather reports worldwide

Advertisment
Lentran, United Kingdom (99125): temperature & dewpoint: 17.05.2018 02:00:00 - 23.05.2018 02:00:00 (BST)Lentran, United Kingdom (99125): precipitation: 17.05.2018 02:00:00 - 23.05.2018 02:00:00 (BST)
Date & Time tt [°C] td [°C] rr [mm]
23.05.2018 02:00:00 6,8 6,4 0,0
23.05.2018 01:00:00 6,9 6,5 0,0
23.05.2018 00:00:00 7,2 6,6 0,0
22.05.2018 23:00:00 7,5 6,5 0,0
22.05.2018 22:00:00 7,7 6,8 0,0
22.05.2018 21:00:00 7,9 6,9 0,0
22.05.2018 20:00:00 8,0 6,8 0,0
22.05.2018 19:00:00 8,3 6,9 0,0
22.05.2018 18:00:00 8,1 6,8 0,0
22.05.2018 17:00:00 7,9 6,3 0,0
22.05.2018 16:00:00 8,0 6,6 0,0
22.05.2018 15:00:00 8,0 6,7 0,0
22.05.2018 14:00:00 8,0 6,8 0,0
22.05.2018 13:00:00 7,9 7,0 0,0
22.05.2018 12:00:00 7,9 6,6 0,0
22.05.2018 11:00:00 7,5 7,0 0,0
22.05.2018 10:00:00 6,9 6,8 0,4
22.05.2018 09:00:00 6,5 6,4 0,2
22.05.2018 08:00:00 6,0 5,9 0,4
22.05.2018 07:00:00 5,7 5,6 0,0
22.05.2018 06:00:00 5,4 5,2 0,4
22.05.2018 05:00:00 5,2 5,0 0,2
22.05.2018 04:00:00 5,1 4,9 0,2
22.05.2018 03:00:00 5,2 5,0 0,0
22.05.2018 02:00:00 5,3 5,2 0,2
22.05.2018 01:00:00 5,3 5,2 0,8
22.05.2018 00:00:00 5,4 5,2 1,2
21.05.2018 23:00:00 5,5 5,3 1,6
21.05.2018 22:00:00 5,7 5,4 1,8
21.05.2018 21:00:00 6,2 6,0 2,0
21.05.2018 20:00:00 6,8 6,7 1,2
21.05.2018 19:00:00 7,2 7,0 0,6
21.05.2018 18:00:00 7,5 7,5 1,8
21.05.2018 17:00:00 7,8 7,7 1,6
21.05.2018 16:00:00 8,3 8,1 1,8
21.05.2018 15:00:00 9,0 8,8 1,2
21.05.2018 14:00:00 9,5 9,4 1,2
21.05.2018 13:00:00 10,3 10,1 0,6
21.05.2018 12:00:00 10,3 10,1 0,4
21.05.2018 11:00:00 10,6 10,0 0,2
21.05.2018 10:00:00 11,4 10,5 0,0
21.05.2018 09:00:00 12,3 11,9 0,0
21.05.2018 08:00:00 12,0 11,9 0,2
21.05.2018 07:00:00 11,6 11,5 0,4
21.05.2018 06:00:00 11,3 11,0 0,4
21.05.2018 05:00:00 11,3 10,9 0,2
21.05.2018 04:00:00 11,4 10,7 0,0
21.05.2018 03:00:00 11,9 11,0 0,4
21.05.2018 02:00:00 11,9 11,0 0,0
21.05.2018 01:00:00 12,9 10,5 0,0
21.05.2018 00:00:00 13,1 10,3 0,0
20.05.2018 23:00:00 13,2 10,2 0,0
20.05.2018 22:00:00 13,7 10,1 0,0
20.05.2018 21:00:00 14,2 10,3 0,0
20.05.2018 20:00:00 14,8 10,5 0,0
20.05.2018 19:00:00 15,4 10,9 0,0
20.05.2018 18:00:00 16,0 11,1 0,0
20.05.2018 17:00:00 17,0 11,7 0,0
20.05.2018 16:00:00 16,4 11,6 0,0
20.05.2018 15:00:00 17,3 11,5 0,0
20.05.2018 14:00:00 17,0 11,2 0,0
20.05.2018 13:00:00 18,2 11,6 0,0
20.05.2018 12:00:00 17,0 10,3 0,0
20.05.2018 11:00:00 17,6 9,4 0,0
20.05.2018 10:00:00 17,4 9,3 0,0
20.05.2018 09:00:00 15,0 9,1 0,0
20.05.2018 08:00:00 13,5 8,4 0,0
20.05.2018 07:00:00 12,6 7,7 0,0
20.05.2018 06:00:00 12,1 7,2 0,0
20.05.2018 05:00:00 12,6 7,1 0,0
20.05.2018 04:00:00 13,2 7,3 0,0
20.05.2018 03:00:00 13,7 7,2 0,0
20.05.2018 02:00:00 13,9 7,0 0,0
20.05.2018 01:00:00 13,8 6,8 0,0
20.05.2018 00:00:00 13,7 5,7 0,0
19.05.2018 23:00:00 13,9 4,6 0,0
19.05.2018 22:00:00 14,3 5,1 0,0
19.05.2018 21:00:00 15,4 5,7 0,0
19.05.2018 20:00:00 16,6 6,5 0,0
19.05.2018 19:00:00 17,6 6,6 0,0
19.05.2018 18:00:00 18,7 7,4 0,0
19.05.2018 17:00:00 19,9 6,9 0,0
19.05.2018 16:00:00 20,1 7,0 0,0
19.05.2018 15:00:00 20,3 7,1 0,0
19.05.2018 14:00:00 19,8 7,9 0,0
19.05.2018 13:00:00 18,1 7,5 0,0
19.05.2018 12:00:00 16,9 7,8 0,0
19.05.2018 11:00:00 16,4 7,7 0,0
19.05.2018 10:00:00 17,0 8,4 0,0
19.05.2018 09:00:00 16,3 7,8 0,0
19.05.2018 08:00:00 14,5 8,5 0,0
19.05.2018 07:00:00 12,4 8,4 0,0
19.05.2018 06:00:00 10,5 8,0 0,0
19.05.2018 05:00:00 9,5 6,9 0,0
19.05.2018 04:00:00 10,1 7,1 0,0
19.05.2018 03:00:00 11,2 7,5 0,0
19.05.2018 02:00:00 10,7 7,6 0,0
19.05.2018 01:00:00 11,0 7,4 0,0
19.05.2018 00:00:00 12,1 6,8 0,0
18.05.2018 23:00:00 12,4 6,9 0,0
18.05.2018 22:00:00 12,7 7,4 0,0
18.05.2018 21:00:00 13,5 7,6 0,0
18.05.2018 20:00:00 14,1 8,3 0,0
18.05.2018 19:00:00 14,5 8,5 0,0
18.05.2018 18:00:00 15,4 7,1 0,0
18.05.2018 17:00:00 16,5 6,9 0,0
18.05.2018 16:00:00 16,5 6,7 0,0
18.05.2018 15:00:00 17,0 4,8 0,0
18.05.2018 14:00:00 16,6 5,7 0,0
18.05.2018 13:00:00 16,2 3,6 0,0
18.05.2018 12:00:00 15,1 4,7 0,0
18.05.2018 11:00:00 14,8 4,6 0,0
18.05.2018 10:00:00 13,6 4,5 0,0
18.05.2018 09:00:00 12,2 6,5 0,0
18.05.2018 08:00:00 8,6 5,8 0,0
18.05.2018 07:00:00 6,2 4,3 0,0
18.05.2018 06:00:00 6,4 4,7 0,0
18.05.2018 05:00:00 4,5 3,0 0,0
18.05.2018 04:00:00 4,8 3,6 0,0
18.05.2018 03:00:00 3,5 2,5 0,0
18.05.2018 02:00:00 3,4 2,2 0,0
18.05.2018 01:00:00 4,2 2,8 0,0
18.05.2018 00:00:00 5,0 3,1 0,0
17.05.2018 23:00:00 5,8 3,2 0,0
17.05.2018 22:00:00 6,7 2,1 0,0
17.05.2018 21:00:00 9,5 1,8 0,0
17.05.2018 20:00:00 10,7 2,1 0,0
17.05.2018 19:00:00 12,6 -2,5 0,0
17.05.2018 18:00:00 14,5 -1,6 0,0
17.05.2018 17:00:00 14,5 1,3 0,0
17.05.2018 16:00:00 14,0 4,3 0,0
17.05.2018 15:00:00 15,0 4,5 0,0
17.05.2018 14:00:00 14,7 4,8 0,0
17.05.2018 13:00:00 14,8 5,1 0,0
17.05.2018 12:00:00 13,0 5,0 0,0
17.05.2018 11:00:00 11,5 5,2 0,0
17.05.2018 10:00:00 9,7 5,1 0,0
17.05.2018 09:00:00 7,6 4,6 0,0
17.05.2018 08:00:00 5,8 4,2 0,0
17.05.2018 07:00:00 3,4 3,0 0,0
17.05.2018 06:00:00 2,4 2,1 0,0
17.05.2018 05:00:00 2,0 1,6 0,0
17.05.2018 04:00:00 2,2 1,4 0,0
17.05.2018 03:00:00 2,9 2,1 0,0
17.05.2018 02:00:00 3,2 2,1 0,0

tt = temperature
td = dewpoint
rr = precipitation

Next stations